[[{"header":{"parameterUnit":"m.s-1","parameterCategory":1,"la1":30.2991,"la2":30.254,"lo1":-89.0895,"lo2":-89.0444,"dy":0.0017,"dx":0.0017,"nx":28,"ny":28,"refTime":"2025-08-29T09:00:00:Z","depth":0,"parameterNumber":2,"parameterNumberName":"U-component_of_WINDS"},"data":[0,0,0,0,0,0,0,0,0,0,0,0,0,0,0,0,0,0,0,0,0,0,0,0,0,0,0,0,0,0,0,0,0,0,0,0,0,0,0,0,0,0,0,0,0,0,0,0,0,0,0,0,0,0,0,0,0,0,-5.4153,-5.4153,0,-5.4111,-5.411,-5.411,-5.3954,-5.395,-5.3947,-5.3943,-5.3901,-5.3903,-5.3906,0,0,0,0,0,0,0,0,0,0,0,0,0,-5.4103,-5.4105,-5.4153,-5.4153,-5.4152,-5.4111,-5.411,-5.411,-5.3955,-5.395,-5.3946,-5.3942,-5.3901,-5.3903,-5.3906,0,0,0,0,0,0,0,0,0,0,0,0,0,-5.41,-5.4106,-5.4153,-5.407,-5.4062,-5.4111,-5.411,-5.4109,-5.3955,-5.395,-5.3945,-5.394,-5.39,-5.3903,-5.3906,-5.4033,0,0,-5.3916,-5.3918,0,0,0,0,0,0,0,0,-5.41,-5.4101,-5.4083,-5.4076,-5.4067,-5.4032,-5.4077,-5.4084,-5.3957,-5.3996,-5.3943,-5.3937,-5.3949,-5.3948,-5.3952,-5.4031,-5.4029,-5.3916,-5.3918,-5.392,-5.3921,0,0,0,0,0,0,0,-5.41,-5.4102,-5.4136,-5.4083,-5.4073,-5.4036,-5.4029,-5.4078,-5.4003,-5.3992,-5.3981,-5.3978,-5.3944,-5.3949,-5.395,-5.4028,-5.3916,-5.3919,-5.3921,-5.3923,-5.421,-5.4216,0,0,0,0,0,0,-5.4112,-5.4104,-5.4138,-5.4135,-5.4071,-5.4041,-5.4033,-5.4049,-5.4002,-5.399,-5.3982,-5.3971,-5.3946,-5.3946,-5.3948,-5.4092,-5.392,-5.3923,-5.3925,-5.4205,-5.4211,-5.4218,0,0,0,0,0,0,-5.4112,-5.4117,-5.4139,-5.4116,-5.4116,-5.4047,-5.4066,-5.4051,-5.4055,-5.3995,-5.3981,-5.4001,-5.3942,-5.3943,-5.4013,-5.4088,-5.3924,-5.3927,-5.4198,-5.4207,-5.4215,-5.4382,0,0,0,0,0,0,-5.4111,-5.4117,-5.4164,-5.4118,-5.4118,-5.4205,-5.407,-5.4054,-5.4061,-5.4046,-5.4008,-5.3997,-5.3938,-5.4009,-5.4016,-5.409,-5.393,-5.4191,-5.4202,-5.4212,-5.4369,-5.4395,-5.4417,0,0,0,0,0,-5.411,-5.4212,-5.4167,-5.4172,-5.4174,-5.4209,-5.4209,-5.4138,-5.4068,-5.4114,-5.4076,-5.3998,-5.408,-5.4017,-5.4024,-5.41,-5.4185,-5.4199,-5.4211,-5.4358,-5.439,-5.4417,0,0,0,0,0,0,-5.4267,-5.4205,-5.4153,-5.4244,-5.4234,-5.4183,-5.4238,-5.4174,-5.4182,-5.4167,-5.408,-5.4073,-5.4155,-5.4135,-5.4066,-5.4221,-5.412,-5.4135,-5.423,-5.4259,-5.4283,-5.4284,-5.3933,0,0,0,0,0,-5.4313,-5.4346,-5.429,-5.4376,-5.4373,-5.4308,-5.432,-5.4267,-5.4252,-5.4246,-5.4213,-5.4202,-5.4225,-5.4242,-5.426,-5.4368,-5.4357,-5.4424,-5.4448,-5.4468,-5.448,-5.4536,-5.4564,-5.426,-5.4259,-5.4259,0,0,-5.4407,-5.4377,-5.4402,-5.4407,-5.4392,-5.4428,-5.4304,-5.4348,-5.4374,-5.4253,-5.4316,-5.4292,-5.4275,-5.4364,-5.4402,-5.435,-5.4563,-5.4484,-5.45,-5.4502,-5.4552,-5.4581,-5.4606,-5.4268,-5.4267,-5.4265,0,0,-5.4595,-5.4577,-5.4646,-5.4635,-5.4614,-5.4571,-5.4588,-5.4548,-5.4527,-5.459,-5.45,-5.4532,-5.4574,-5.4564,-5.4565,-5.4757,-5.4685,-5.4766,-5.4889,-5.4944,-5.4968,-5.4989,-5.5055,-5.508,-5.4779,-5.478,-5.478,0,-5.4713,-5.4764,-5.469,-5.4739,-5.4744,-5.4639,-5.4708,-5.4701,-5.4689,-5.4695,-5.4637,-5.4688,-5.4669,-5.4755,-5.4802,-5.4807,-5.4824,-5.4767,-5.4971,-5.4991,-5.5009,-5.5071,-5.5097,-5.4789,-5.4788,-5.4787,-5.4786,0,-5.491,-5.4948,-5.5007,-5.4997,-5.5009,-5.5069,-5.5005,-5.5027,-5.4975,-5.4938,-5.5004,-5.4979,-5.4989,-5.5007,-5.4956,-5.5087,-5.5055,-5.4986,-5.4882,-5.5049,-5.5106,-5.5129,-5.4803,-5.48,-5.4797,-5.4794,0,0,-5.519,-5.5142,-5.5165,-5.516,-5.5132,-5.516,-5.5217,-5.5228,-5.5248,-5.5245,-5.5289,-5.533,-5.5266,-5.5268,-5.5216,-5.5266,-5.5418,-5.519,-5.5189,-5.5231,-5.5558,-5.5607,-5.5636,-5.5373,-5.5377,-5.538,-5.5559,0,-5.5367,-5.5459,-5.5396,-5.5499,-5.5533,-5.5436,-5.5486,-5.5475,-5.5444,-5.5469,-5.5435,-5.5464,-5.5379,-5.538,-5.5425,-5.539,-5.5481,-5.5376,-5.5412,-5.5414,-5.5415,-5.5666,-5.5717,-5.5886,-5.5581,-5.5585,-5.5587,0,-5.5583,-5.559,-5.5697,-5.5664,-5.5676,-5.5721,-5.5728,-5.5753,-5.5741,-5.5715,-5.572,-5.5656,-5.5711,-5.5614,-5.5687,-5.5617,-5.563,-5.5616,-5.562,-5.5617,-5.5507,-5.5666,-5.5939,-5.5963,-5.5622,-5.5619,-5.5617,0,-5.5773,-5.581,-5.5878,-5.5878,-5.5842,-5.5876,-5.5864,-5.5846,-5.5857,-5.5864,-5.5871,-5.5885,-5.5892,-5.5905,-5.5847,-5.5782,-5.5929,-5.5826,-5.5908,-5.591,-5.5938,-5.5937,-5.6213,-5.5954,-5.5954,-5.5954,-5.5953,0,-5.5974,-5.6042,-5.5963,-5.6004,-5.6079,-5.6009,-5.6085,-5.6062,-5.6048,-5.6084,-5.6004,-5.6039,-5.5964,-5.5993,-5.595,-5.6017,-5.6022,-5.6002,-5.5988,-5.6006,-5.6009,-5.6009,-5.5994,-5.596,-5.5959,-5.5957,-5.5956,0,-5.6196,-5.6146,-5.6213,-5.6176,-5.6169,-5.6225,-5.6193,-5.6231,-5.6198,-5.6245,-5.6252,-5.6198,-5.6228,-5.6175,-5.6198,-5.6169,-5.6262,-5.6233,-5.6266,-5.6256,-5.6339,-5.6331,-5.6622,-5.6656,-5.638,-5.6383,-5.6385,0,-5.6324,-5.6375,-5.6344,-5.6363,-5.6355,-5.6386,-5.6398,-5.6333,-5.6349,-5.6341,-5.638,-5.6404,-5.6419,-5.6472,-5.6435,-5.6454,-5.6422,-5.6523,-5.6423,-5.644,-5.6419,-5.6415,-5.6419,-5.6542,-5.6545,-5.6548,-5.655,0,-5.6557,-5.6532,-5.6552,-5.6565,-5.6582,-5.659,-5.6591,-5.6611,-5.6543,-5.6566,-5.6596,-5.6608,-5.6633,-5.6657,-5.6667,-5.6655,-5.6591,-5.6583,-5.6602,-5.6618,-5.6634,-5.6623,-5.6318,-5.6575,-5.6572,-5.657,-5.6569,-5.6568,-5.6733,-5.6774,-5.676,-5.6786,-5.6781,-5.6786,-5.6819,-5.6791,-5.6815,-5.683,-5.6792,-5.6831,-5.6821,-5.6828,-5.6823,-5.6854,-5.6808,-5.6837,-5.6843,-5.685,-5.6862,-5.6634,-5.6856,-5.6855,-5.6854,-5.6854,-5.6853,0,-5.6959,-5.6947,-5.6972,-5.6977,-5.6999,-5.6941,-5.6941,-5.6962,-5.6998,-5.6994,-5.7011,-5.7047,-5.7072,-5.704,-5.7059,-5.709,-5.7061,-5.7097,-5.7091,-5.7089,-5.6903,-5.6882,-5.712,-5.712,-5.7119,-5.7119,-5.7119,-5.7119,-5.7079,-5.7144,-5.7118,-5.7181,-5.7168,-5.7206,-5.7211,-5.7215,-5.7212,-5.7255,-5.7276,-5.7256,-5.7241,-5.7259,-5.7279,-5.727,-5.7279,-5.7324,-5.7304,-5.7129,-5.7102,-5.7077,-5.7058,-5.7328,-5.7328,-5.7487,-5.7489,-5.749]},{"header":{"parameterUnit":"m.s-1","parameterCategory":1,"la1":30.2991,"la2":30.254,"lo1":-89.0895,"lo2":-89.0444,"dy":0.0017,"dx":0.0017,"nx":28,"ny":28,"refTime":"2025-08-29T09:00:00:Z","depth":0,"parameterNumber":3,"parameterNumberName":"V-component_of_WINDS"},"data":[0,0,0,0,0,0,0,0,0,0,0,0,0,0,0,0,0,0,0,0,0,0,0,0,0,0,0,0,0,0,0,0,0,0,0,0,0,0,0,0,0,0,0,0,0,0,0,0,0,0,0,0,0,0,0,0,0,0,2.0022,2.0021,0,1.9882,1.988,1.9879,1.9764,1.9762,1.9761,1.976,1.9607,1.9604,1.9601,0,0,0,0,0,0,0,0,0,0,0,0,0,2.0186,2.0184,2.0022,2.002,2.0019,1.9882,1.988,1.9878,1.9764,1.9762,1.9761,1.976,1.9608,1.9604,1.9601,0,0,0,0,0,0,0,0,0,0,0,0,0,2.0087,2.0183,2.0023,1.9945,1.9937,1.9882,1.988,1.9878,1.9764,1.9762,1.9761,1.9759,1.9609,1.9605,1.96,1.9608,0,0,1.9587,1.9585,0,0,0,0,0,0,0,0,2.0093,2.0081,1.9958,1.9951,1.9941,1.9839,1.9882,1.9787,1.9764,1.9829,1.976,1.9758,1.9685,1.9674,1.9651,1.9601,1.9594,1.9586,1.9583,1.9582,1.958,0,0,0,0,0,0,0,2.01,2.0086,1.9966,1.9957,1.9946,1.9916,1.99,1.9863,1.9768,1.9824,1.9815,1.9801,1.968,1.9656,1.9647,1.9592,1.9586,1.9582,1.958,1.9578,1.9544,1.9546,0,0,0,0,0,0,2.012,2.0093,1.9971,1.9962,2.0015,1.9915,1.9897,1.9873,1.9769,1.9751,1.9802,1.9796,1.9664,1.9652,1.9641,1.9644,1.9582,1.9577,1.9575,1.9542,1.9545,1.9547,0,0,0,0,0,0,2.0124,2.011,1.9976,2.0025,2.0006,1.9914,1.9888,1.9871,1.9847,1.9752,1.9734,1.9796,1.9662,1.9647,1.9618,1.9638,1.9575,1.9571,1.954,1.9543,1.9546,1.9651,0,0,0,0,0,0,2.0129,2.0112,2.0115,2.0026,2.0004,1.9958,1.9889,1.987,1.9841,1.9831,1.9741,1.9725,1.966,1.9626,1.9614,1.963,1.9568,1.9538,1.9542,1.9545,1.9646,1.9657,1.9667,0,0,0,0,0,2.0135,2.0147,2.0115,2.0101,2.0006,1.9959,1.9946,1.9874,1.9843,1.9844,1.9785,1.9727,1.9639,1.9624,1.961,1.9625,1.9536,1.9541,1.9544,1.9641,1.9655,1.9667,0,0,0,0,0,0,2.0235,2.0134,2.0097,2.0082,2.0031,1.994,1.9939,1.9891,1.9845,1.9837,1.9747,1.9728,1.9709,1.9664,1.965,1.9629,1.958,1.9582,1.9658,1.9671,1.9682,1.9692,1.9564,0,0,0,0,0,2.0256,2.0229,2.0141,2.0136,2.0113,2.0032,2.0008,1.9958,1.99,1.9877,1.9814,1.9758,1.9717,1.9692,1.9649,1.964,1.9619,1.9644,1.9655,1.9664,1.9665,1.966,1.967,1.956,1.956,1.956,0,0,2.0297,2.0239,2.0226,2.0155,2.0109,2.0082,2.0013,1.9986,1.9965,1.9871,1.9841,1.9795,1.9726,1.9708,1.9697,1.967,1.9692,1.9669,1.9678,1.9673,1.9665,1.9675,1.9685,1.9563,1.9562,1.9562,0,0,2.0359,2.0313,2.0304,2.0262,2.0196,2.0143,2.0142,2.006,2.0026,1.9996,1.9926,1.9899,1.9831,1.9786,1.9754,1.9807,1.9752,1.9795,1.985,1.9846,1.9854,1.9861,1.988,1.9888,1.9797,1.9797,1.9798,0,2.0417,2.0376,2.0305,2.0284,2.0255,2.0175,2.0166,2.0127,2.0049,2.0031,2.0003,1.9919,1.9867,1.9839,1.9853,1.9829,1.9824,1.9803,1.9859,1.9866,1.9871,1.9889,1.9896,1.9803,1.9802,1.9802,1.9801,0,2.0452,2.0425,2.0426,2.0358,2.0329,2.0314,2.024,2.022,2.0174,2.0124,2.0096,2.0032,1.9977,1.9967,1.9919,1.9933,1.9918,1.9877,1.9825,1.9889,1.9903,1.9909,1.9811,1.9809,1.9807,1.9806,0,0,2.0566,2.0465,2.0466,2.0437,2.0361,2.0337,2.032,2.0271,2.0255,2.0206,2.0188,2.0136,2.0099,2.0063,2.0011,2.0007,2.0055,1.9965,1.9962,1.9984,2.0067,2.0098,2.0107,2.002,2.0021,2.0022,2.0072,0,2.0615,2.0581,2.052,2.0505,2.048,2.0407,2.0392,2.0344,2.0298,2.0269,2.0217,2.0182,2.0135,2.0114,2.0107,2.005,2.007,2.0046,2.0001,2.0001,2.0019,2.0114,2.0145,2.0196,2.0078,2.0079,2.0079,0,2.0665,2.0626,2.061,2.0541,2.0528,2.0516,2.0468,2.0441,2.0386,2.0353,2.0318,2.0263,2.024,2.0197,2.0164,2.015,2.0129,2.0099,2.0099,2.009,2.0042,2.0106,2.021,2.0217,2.0087,2.0087,2.0086,0,2.075,2.0693,2.0677,2.0654,2.0573,2.0567,2.0532,2.0475,2.0451,2.0409,2.0392,2.0346,2.0321,2.0286,2.0221,2.0195,2.0196,2.0146,2.0167,2.0169,2.0167,2.0167,2.0267,2.0157,2.0157,2.0157,2.0157,0,2.0809,2.0802,2.0715,2.0705,2.0696,2.0627,2.0619,2.0578,2.053,2.051,2.0443,2.0426,2.0341,2.0314,2.0262,2.0244,2.0233,2.0205,2.019,2.0209,2.0213,2.0192,2.0186,2.0159,2.0158,2.0158,2.0157,0,2.0901,2.0842,2.082,2.0749,2.073,2.0727,2.0664,2.0652,2.0605,2.0581,2.0571,2.0497,2.0462,2.0395,2.0338,2.0304,2.0297,2.0273,2.0317,2.0308,2.0332,2.0331,2.042,2.0428,2.0315,2.0316,2.0317,0,2.0941,2.0935,2.0865,2.0849,2.0819,2.0793,2.077,2.0703,2.068,2.0621,2.0616,2.0577,2.0541,2.0489,2.0428,2.0387,2.036,2.0395,2.0353,2.0374,2.036,2.0361,2.036,2.0403,2.0405,2.0406,2.0407,0,2.1019,2.0992,2.0963,2.0925,2.09,2.0866,2.0828,2.0818,2.0742,2.0721,2.0687,2.066,2.0608,2.0569,2.052,2.0482,2.0432,2.0423,2.0425,2.0442,2.0468,2.0455,2.0341,2.0419,2.0418,2.0417,2.0417,2.0416,2.1085,2.1078,2.1029,2.0999,2.0966,2.0933,2.0919,2.0874,2.0846,2.08,2.0762,2.0732,2.068,2.061,2.0576,2.0551,2.0526,2.0529,2.053,2.0531,2.054,2.0475,2.0541,2.0541,2.054,2.054,2.054,0,2.1159,2.1126,2.11,2.1052,2.103,2.0991,2.0948,2.0931,2.0907,2.0865,2.0834,2.0796,2.0761,2.0701,2.066,2.0652,2.0628,2.0643,2.0642,2.0634,2.0563,2.0565,2.0663,2.0663,2.0663,2.0663,2.0663,2.0663,2.1195,2.1182,2.115,2.112,2.1086,2.1059,2.1039,2.1009,2.0975,2.0938,2.091,2.0873,2.0824,2.0781,2.0747,2.073,2.0718,2.074,2.0716,2.065,2.0639,2.0627,2.0629,2.0738,2.0739,2.0788,2.0789,2.0789]}]]